Wind_Speed
120 116 111 100 96 93 88 86 83 86 87 83 80 80 66 58 63 66 64 61 58 59 49 46 48 45 47 48 43 41 44 43 39 39 41 40 39 41 39 39 38 37 41 45
125 119 103 106 104 102 95 93 88 87 84 81 85 82 72 61 58 62 62 58 58 57 51 49 48 47 49 47 48 45 44 48 44 41 37 37 39 43 45 44 44 48 48 49
126 109 111 109 110 106 101 93 92 92 87 79 82 81 75 67 67 68 62 59 62 61 57 53 52 52 49 52 50 47 46 47 49 46 48 46 46 46 47 46 51 53 53 55
128 122 118 113 110 107 104 97 99 93 91 83 76 73 78 75 70 64 63 63 66 64 60 56 57 56 54 54 49 51 47 48 49 51 52 55 55 53 51 53 58 57 59 59
131 124 118 115 104 107 105 103 103 100 94 90 84 73 76 74 72 72 69 66 65 67 66 63 58 59 57 55 54 56 55 51 52 55 58 61 63 63 58 61 64 65 63 63
134 131 124 118 118 115 112 110 108 103 98 98 88 81 70 68 72 72 69 67 66 66 66 64 64 62 61 58 59 58 61 60 59 62 62 65 66 66 67 68 67 68 69 72
137 138 127 126 124 121 118 114 114 112 111 93 91 88 76 66 66 66 67 70 69 69 68 61 63 66 62 61 63 64 63 65 68 70 68 65 68 71 73 74 75 76 77 75
138 140 133 132 124 118 111 111 113 113 101 91 94 88 73 72 70 65 65 68 65 64 59 59 57 57 59 63 64 64 66 65 69 69 71 71 75 75 75 76 75 76 74 71
133 136 132 129 124 123 118 122 114 114 109 101 98 86 81 79 81 73 66 64 59 55 54 52 54 56 60 61 59 61 61 63 64 68 67 65 66 65 67 68 69 69 70 70
130 132 133 128 130 130 125 117 121 119 115 106 96 88 80 80 74 76 74 71 67 64 61 59 58 57 59 58 57 58 57 57 57 57 58 60 61 63 65 65 69 71 72 74
130 132 133 133 135 129 125 125 121 119 114 108 100 92 81 79 82 81 80 77 75 71 68 68 65 64 63 63 64 64 63 63 64 65 66 69 70 71 72 74 77 79 80 82
128 129 131 133 130 130 125 124 122 120 111 105 101 89 84 82 82 82 80 80 83 82 81 77 73 70 69 70 70 70 70 70 70 71 71 72 74 75 77 79 80 82 85 88
126 129 134 140 136 135 132 124 121 119 114 112 104 92 92 89 88 86 86 84 84 85 85 85 81 77 76 74 72 72 73 75 76 77 79 79 80 81 83 85 88 89 92 94
117 125 129 137 127 122 127 121 119 120 117 106 106 92 93 91 91 91 90 89 87 87 85 84 83 82 81 80 78 79 81 82 82 83 84 85 86 89 90 91 92 93 94 95
112 125 124 127 132 135 132 130 126 124 114 116 101 103 98 96 95 97 100 97 95 92 89 88 87 87 86 86 85 85 86 85 85 86 87 88 90 92 93 93 94 95 98 99
111 115 114 118 128 136 137 131 134 129 122 121 112 108 99 100 99 98 100 100 99 95 94 94 92 88 88 88 88 88 88 87 87 90 90 91 92 94 95 96 98 101 102 103
103 109 111 117 122 129 141 137 132 129 124 120 119 105 104 105 104 103 106 107 105 101 98 96 94 95 94 94 93 92 92 92 92 94 96 95 96 97 98 100 102 104 107 109
89 89 109 112 116 127 134 138 134 131 128 125 121 114 112 109 109 110 108 108 103 100 99 98 98 98 97 95 95 95 96 96 97 98 99 99 101 102 104 105 106 109 111 113
89 89 97 106 115 122 126 128 135 135 129 126 122 115 116 115 115 115 111 106 105 104 104 103 103 101 99 99 99 99 99 100 100 101 103 104 107 107 108 109 112 115 116 117
83 93 96 102 108 119 111 123 127 135 135 131 130 125 122 122 126 115 112 111 110 110 109 110 108 105 103 102 103 103 105 104 104 105 107 108 109 110 113 115 116 119 121 122
81 92 97 100 101 102 105 111 125 135 128 125 130 127 129 129 124 115 119 119 117 116 114 113 110 108 108 108 108 108 109 110 111 110 112 113 115 118 119 120 122 123 124 126
80 89 95 96 98 96 97 105 112 110 109 124 126 131 129 129 129 125 121 121 119 118 116 116 115 113 115 116 112 111 110 111 114 117 120 119 121 122 123 124 125 126 127 126
77 82 86 89 85 82 86 91 90 91 98 104 117 121 127 127 129 126 125 124 123 120 118 117 118 118 119 117 118 115 117 118 119 122 122 124 125 125 127 126 128 126 122 120
76 77 89 85 80 79 80 81 84 89 91 97 100 107 114 119 124 123 123 122 121 119 119 119 121 121 121 120 119 120 120 123 124 126 125 124 126 126 124 123 124 124 122 118
84 80 80 76 68 69 76 79 81 80 80 82 89 91 95 102 115 120 118 118 116 117 116 116 117 120 121 123 123 125 125 123 125 126 124 125 124 119 118 119 119 114 110 103
89 84 80 80 74 73 72 77 78 75 75 73 71 69 78 82 90 97 101 111 112 111 111 111 114 117 117 116 118 120 123 122 119 120 117 114 116 113 110 107 106 100 91 87
Wind_Direction
220 221 218 218 222 223 221 224 227 228 227 230 236 236 236 233 234 236 237 240 237 238 237 243 245 249 249 254 253 259 260 267 273 278 281 281 278 271 282 283 289 285 296 295
219 221 218 219 220 224 221 222 227 230 228 227 235 237 233 230 231 233 233 230 233 232 239 241 243 249 254 255 257 263 267 268 269 272 276 277 283 284 281 283 288 289 289 290
220 218 219 218 219 222 223 223 227 232 229 226 229 237 237 231 231 233 236 233 232 238 240 244 246 253 258 256 255 261 266 268 263 271 271 275 279 285 286 285 285 289 292 291
219 217 218 218 219 222 223 225 226 230 231 226 226 228 238 238 236 237 240 239 237 242 243 247 250 252 258 257 259 261 264 267 266 268 273 274 275 278 284 286 284 286 288 290
220 219 220 220 221 222 224 226 226 229 230 228 228 225 234 236 238 238 239 240 242 246 249 251 254 256 255 256 259 261 262 266 266 267 271 275 276 278 282 284 286 285 290 289
219 219 218 217 220 221 222 225 226 228 229 228 228 226 230 235 237 238 238 245 246 248 249 249 252 256 254 254 256 260 261 263 266 267 271 271 276 277 280 285 286 287 286 289
216 219 215 217 220 222 222 225 226 228 229 228 231 232 231 231 238 240 241 245 247 250 252 251 254 256 255 256 258 258 261 262 265 267 270 271 274 274 277 280 284 287 286 285
216 215 215 218 221 225 225 228 230 232 233 231 234 235 230 236 235 241 243 245 248 251 253 254 254 256 257 258 259 259 260 262 263 265 270 273 273 276 278 281 281 283 284 286
216 214 216 219 221 223 224 227 229 229 229 227 228 230 228 233 235 234 237 238 242 244 247 249 255 253 254 258 260 262 264 263 265 265 268 270 274 275 277 279 280 282 283 285
217 215 216 218 220 221 223 225 227 229 229 231 231 230 232 235 237 238 239 238 238 241 243 245 247 248 252 255 257 258 260 262 264 267 271 274 275 276 278 281 281 283 285 287
217 217 213 216 219 221 224 226 228 230 229 230 230 229 232 235 238 239 240 239 239 242 243 245 247 250 252 254 257 260 263 266 268 272 274 277 277 279 281 282 283 286 287 288
220 219 214 215 219 221 223 225 227 229 230 233 235 231 231 234 238 242 244 245 246 246 245 249 250 250 252 255 258 260 263 265 267 270 273 274 276 278 280 281 282 285 287 289
221 219 216 216 218 220 221 225 228 230 230 230 230 226 230 232 235 238 241 243 245 247 249 251 251 251 255 256 258 262 265 268 270 272 274 277 278 280 280 282 284 286 288 290
224 222 221 219 220 225 227 227 230 232 231 232 234 230 232 233 235 237 240 240 243 244 248 252 255 256 257 259 261 262 264 266 268 271 273 275 277 278 281 282 285 286 287 289
225 224 222 221 220 223 225 225 228 231 232 235 233 233 232 234 235 238 240 242 244 246 248 251 253 255 258 260 262 264 265 268 270 272 273 274 275 278 280 283 285 286 287 289
226 226 224 224 222 223 225 226 228 228 229 232 231 233 233 236 236 239 243 245 246 248 250 251 252 254 257 259 261 263 266 269 270 271 274 276 277 279 281 283 284 285 288 289
226 227 225 224 225 226 227 224 229 230 231 233 233 233 235 237 237 238 240 243 244 246 249 253 255 256 257 259 262 264 266 268 270 271 273 275 276 278 280 281 282 284 287 289
223 229 228 226 226 228 226 227 228 231 232 233 234 234 237 238 240 241 242 246 249 250 251 252 254 257 259 261 263 265 267 269 269 271 273 275 277 278 279 281 283 285 288 290
224 227 229 229 229 229 227 229 230 231 232 234 236 236 237 238 240 242 244 246 247 248 250 252 253 256 258 259 261 264 266 267 269 271 274 276 277 278 281 282 284 287 289 291
224 225 229 229 229 231 229 229 231 233 231 235 236 235 236 238 239 241 244 244 245 247 249 251 253 255 258 260 262 264 267 268 270 274 275 276 279 280 281 283 284 287 289 292
229 226 226 228 229 230 229 231 232 234 234 237 237 237 240 240 242 242 243 244 246 248 251 253 256 258 260 261 262 265 268 271 271 273 275 277 279 280 281 284 286 288 291 292
229 230 229 228 228 227 228 230 233 234 235 237 239 239 239 242 241 242 243 247 248 249 251 253 255 257 259 260 264 267 268 270 270 272 274 277 279 280 281 283 285 288 290 293
228 229 230 233 233 229 234 234 235 238 237 236 237 239 241 243 245 247 247 248 250 250 250 253 255 256 259 262 262 265 267 270 271 272 275 276 278 280 281 283 286 289 292 293
228 227 229 232 232 233 235 235 237 240 239 239 239 240 242 243 244 246 249 251 254 255 256 257 258 260 261 263 264 266 267 269 272 274 275 277 279 281 284 284 287 289 289 289
224 224 227 227 231 233 234 234 238 243 245 247 247 248 248 248 246 246 248 250 253 256 257 259 260 262 263 264 266 268 269 270 272 274 276 277 280 283 284 285 285 285 287 288
225 229 229 229 226 230 236 240 242 245 246 246 246 247 249 250 250 250 252 252 253 254 255 257 259 262 264 265 267 268 268 270 272 275 277 279 279 281 282 283 283 286 287 288
Height
10619 10633 10660 10705 10706 10712 10727 10736 10736 10739 10748 10761 10772 10775 10789 10801 10808 10812 10818 10825 10828 10829 10839 10843 10845 10846 10849 10853 10854 10857 10857 10859 10860 10860 10859 10858 10856 10856 10856 10855 10854 10852 10849 10847
10596 10621 10671 10672 10682 10691 10705 10718 10725 10721 10738 10753 10757 10766 10778 10795 10798 10797 10805 10815 10818 10821 10830 10832 10835 10838 10840 10845 10847 10848 10851 10849 10850 10851 10851 10849 10847 10847 10847 10847 10845 10842 10841 10839
10587 10640 10638 10652 10667 10678 10697 10709 10710 10712 10724 10739 10747 10755 10771 10779 10782 10788 10797 10803 10809 10812 10820 10823 10826 10828 10834 10833 10836 10841 10840 10839 10840 10842 10841 10840 10839 10838 10837 10838 10835 10832 10830 10829
10571 10600 10616 10633 10654 10666 10682 10691 10692 10697 10708 10728 10733 10749 10759 10766 10775 10784 10787 10793 10798 10803 10809 10814 10816 10819 10821 10822 10831 10830 10831 10831 10831 10833 10830 10830 10830 10828 10828 10826 10823 10823 10822 10819
10562 10591 10613 10628 10660 10655 10667 10668 10670 10677 10691 10710 10723 10739 10749 10757 10764 10767 10774 10779 10788 10793 10800 10804 10806 10807 10813 10817 10819 10821 10821 10821 10822 10821 10820 10819 10817 10817 10818 10814 10812 10811 10809 10807
10538 10564 10586 10614 10611 10622 10634 10640 10649 10661 10677 10691 10716 10729 10736 10753 10749 10756 10768 10772 10776 10782 10789 10795 10797 10798 10800 10805 10807 10809 10811 10811 10811 10811 10809 10808 10806 10806 10803 10802 10801 10800 10797 10793
10520 10538 10575 10580 10589 10600 10615 10626 10639 10645 10654 10702 10705 10717 10740 10743 10743 10748 10757 10763 10767 10770 10776 10784 10786 10788 10789 10792 10795 10796 10798 10799 10800 10799 10798 10796 10796 10794 10791 10789 10788 10786 10783 10780
10504 10524 10552 10568 10589 10612 10628 10634 10638 10646 10669 10697 10696 10719 10740 10727 10736 10740 10746 10751 10756 10759 10763 10768 10774 10776 10778 10780 10781 10782 10785 10786 10786 10785 10786 10786 10783 10781 10779 10777 10777 10771 10768 10766
10489 10522 10545 10562 10579 10589 10602 10597 10627 10626 10643 10657 10676 10698 10714 10704 10716 10727 10732 10740 10744 10748 10752 10754 10759 10764 10766 10767 10767 10768 10769 10773 10773 10773 10774 10771 10770 10769 10767 10767 10763 10759 10756 10753
10480 10500 10525 10546 10552 10556 10577 10598 10587 10606 10628 10650 10674 10690 10709 10706 10706 10715 10723 10728 10731 10737 10741 10743 10746 10750 10752 10754 10755 10756 10756 10758 10758 10760 10760 10759 10758 10757 10755 10754 10749 10747 10743 10739
10465 10481 10510 10517 10525 10554 10565 10569 10585 10599 10616 10635 10658 10682 10696 10696 10690 10695 10703 10711 10719 10724 10727 10730 10734 10736 10739 10741 10743 10744 10745 10745 10745 10745 10745 10746 10745 10744 10742 10738 10734 10731 10729 10724
10455 10471 10492 10509 10526 10533 10547 10557 10565 10571 10609 10630 10649 10679 10680 10683 10679 10684 10690 10697 10702 10706 10711 10715 10720 10723 10725 10728 10729 10730 10732 10734 10735 10734 10733 10731 10731 10729 10726 10722 10719 10716 10713 10709
10425 10443 10462 10476 10489 10501 10517 10542 10558 10570 10587 10600 10618 10659 10659 10665 10667 10665 10670 10674 10680 10686 10691 10697 10703 10709 10713 10714 10715 10716 10718 10719 10719 10718 10718 10716 10714 10712 10707 10704 10702 10699 10696 10691
10413 10425 10447 10473 10514 10533 10529 10546 10552 10555 10566 10606 10609 10648 10644 10652 10654 10653 10651 10654 10660 10666 10675 10682 10687 10692 10697 10699 10701 10703 10703 10702 10701 10702 10701 10698 10696 10691 10689 10688 10685 10682 10678 10673
10394 10409 10433 10458 10475 10476 10490 10503 10517 10523 10567 10560 10613 10609 10623 10632 10636 10634 10630 10635 10643 10652 10661 10666 10670 10674 10679 10681 10682 10682 10683 10685 10685 10684 10681 10679 10676 10673 10672 10669 10666 10662 10659 10654
10379 10394 10419 10433 10445 10455 10461 10484 10492 10508 10530 10534 10573 10585 10607 10609 10617 10621 10621 10623 10628 10638 10641 10645 10652 10658 10660 10662 10662 10662 10665 10667 10666 10663 10662 10658 10656 10654 10652 10650 10646 10642 10640 10634
10364 10381 10398 10413 10426 10432 10430 10464 10486 10506 10522 10536 10547 10584 10579 10584 10594 10599 10597 10599 10604 10612 10620 10630 10636 10640 10642 10641 10645 10647 10647 10646 10645 10644 10643 10640 10638 10636 10632 10628 10625 10621 10616 10612
10351 10369 10381 10397 10403 10400 10449 10461 10482 10489 10504 10509 10526 10547 10555 10567 10572 10570 10581 10589 10603 10607 10608 10612 10613 10617 10620 10624 10625 10625 10625 10625 10623 10622 10622 10620 10618 10614 10609 10607 10603 10598 10594 10588
10343 10350 10358 10371 10385 10399 10427 10448 10461 10470 10493 10499 10505 10529 10531 10539 10542 10548 10563 10581 10586 10586 10585 10591 10593 10597 10602 10602 10603 10604 10604 10602 10601 10601 10600 10598 10594 10591 10588 10584 10579 10574 10569 10564
10326 10332 10344 10355 10361 10387 10436 10432 10436 10435 10453 10469 10486 10501 10507 10504 10506 10543 10541 10550 10557 10558 10562 10565 10572 10579 10583 10584 10582 10582 10581 10579 10578 10579 10576 10572 10570 10566 10561 10557 10553 10549 10543 10539
10312 10314 10325 10335 10351 10381 10402 10409 10407 10408 10459 10451 10463 10478 10474 10481 10506 10524 10502 10519 10531 10538 10546 10550 10558 10561 10562 10561 10559 10561 10560 10559 10557 10555 10552 10551 10548 10544 10538 10534 10529 10523 10519 10512
10298 10304 10312 10328 10343 10366 10381 10384 10396 10424 10423 10430 10428 10442 10443 10461 10471 10481 10488 10493 10511 10519 10526 10531 10535 10538 10537 10538 10539 10540 10541 10535 10534 10533 10530 10527 10524 10519 10514 10509 10504 10500 10494 10485
10284 10299 10312 10326 10351 10361 10368 10376 10377 10384 10395 10402 10410 10415 10425 10445 10457 10464 10471 10474 10487 10496 10500 10505 10512 10513 10513 10517 10516 10519 10516 10513 10512 10510 10509 10505 10501 10496 10489 10484 10480 10474 10467 10462
10273 10290 10299 10316 10334 10344 10351 10355 10356 10363 10371 10379 10390 10398 10410 10422 10433 10442 10450 10458 10467 10477 10482 10483 10484 10486 10486 10488 10488 10491 10489 10486 10485 10482 10481 10477 10472 10469 10462 10455 10453 10447 10439 10435
10266 10280 10293 10309 10320 10327 10335 10339 10341 10350 10359 10366 10379 10388 10395 10405 10412 10420 10430 10437 10443 10451 10454 10456 10459 10459 10460 10459 10461 10462 10464 10460 10457 10455 10453 10449 10445 10441 10434 10429 10425 10420 10411 10407
10252 10266 10278 10295 10306 10312 10318 10325 10329 10333 10339 10352 10363 10371 10377 10386 10393 10399 10406 10413 10419 10423 10426 10429 10430 10433 10433 10433 10433 10435 10433 10431 10430 10426 10423 10420 10416 10412 10406 10400 10395 10390 10384 10379